AAL117 UMMS-UUYP

Flight info

Callsign AAL117
Flight time 2h 38m
Altitude 37000
Route AGNEF2F AGNEF N869 REKPA/K0878F390 N869 RANTO T753 TUNOB T791 KTL T187 GONIB T791 TOVGI
Aircraft B77W/H-SDE1E2E3FGHIJ2J3J4J5M1RWXY/LB1D1

Departure

Time 2026-05-04 10:06
Airport Minsk National Airport (UMMS)

Arrival

Time 2026-05-04 12:44
Airport Pechora Airport (UUYP)
Time Latitude Longitude Altitude Speed Heading
2026-05-04 09:39 53.88859 28.03135 645 ft 0 kts 25°
2026-05-04 09:51 53.88857 28.03133 646 ft 2 kts 25°
2026-05-04 09:52 53.88841 28.03121 645 ft 3 kts 25°
2026-05-04 09:52 53.88825 28.03109 644 ft 3 kts 25°
2026-05-04 09:52 53.88809 28.03096 646 ft 3 kts 25°
2026-05-04 09:52 53.88793 28.03083 642 ft 3 kts 25°
2026-05-04 09:53 53.88777 28.03071 645 ft 3 kts 25°
2026-05-04 09:53 53.88761 28.03059 641 ft 2 kts 25°
2026-05-04 09:53 53.88748 28.03048 642 ft 2 kts 25°
2026-05-04 09:53 53.88734 28.03037 643 ft 2 kts 25°
2026-05-04 09:54 53.88719 28.03026 643 ft 2 kts 25°
2026-05-04 09:54 53.88703 28.03013 643 ft 3 kts 25°
2026-05-04 09:54 53.88687 28.03001 643 ft 3 kts 25°
2026-05-04 09:54 53.88683 28.02998 643 ft 0 kts 25°
2026-05-04 09:56 53.88684 28.02998 643 ft 0 kts 25°
2026-05-04 09:56 53.88685 28.02999 643 ft 0 kts 25°
2026-05-04 09:56 53.88715 28.03031 642 ft 17 kts 35°
2026-05-04 09:57 53.88764 28.03100 643 ft 0 kts 47°
2026-05-04 09:58 53.88765 28.03109 644 ft 2 kts 72°
2026-05-04 09:58 53.88748 28.03146 648 ft 8 kts 135°
2026-05-04 09:58 53.88682 28.03246 645 ft 17 kts 139°
2026-05-04 10:00 53.89132 28.04733 646 ft 41 kts 49°
2026-05-04 10:00 53.89188 28.04870 645 ft 8 kts 90°
2026-05-04 10:02 53.88107 28.06517 645 ft 46 kts 139°
2026-05-04 10:04 53.88166 28.06820 645 ft 0 kts 320°
2026-05-04 10:04 53.88169 28.06815 645 ft 2 kts 319°
2026-05-04 10:04 53.88170 28.06813 645 ft 0 kts 319°
2026-05-04 10:05 53.88221 28.06738 649 ft 7 kts 319°
2026-05-04 10:05 53.88222 28.06736 645 ft 0 kts 319°
2026-05-04 10:06 53.88325 28.06582 645 ft 66 kts 318°
2026-05-04 10:06 53.88944 28.05656 647 ft 166 kts 318°
2026-05-04 10:06 53.89886 28.04200 1396 ft 180 kts 316°
2026-05-04 10:08 53.97346 27.96146 4853 ft 255 kts 10°
2026-05-04 10:08 53.99057 27.97028 5625 ft 259 kts 14°
2026-05-04 10:08 54.00795 27.97939 6378 ft 262 kts 14°
2026-05-04 10:08 54.02542 27.98847 7135 ft 263 kts 13°
2026-05-04 10:09 54.04289 27.99798 7768 ft 262 kts 21°
2026-05-04 10:09 54.05770 28.01685 7969 ft 276 kts 52°
2026-05-04 10:09 54.06467 28.04755 7971 ft 283 kts 87°
2026-05-04 10:09 54.06444 28.08083 7962 ft 283 kts 92°
2026-05-04 10:10 54.06388 28.11440 7970 ft 281 kts 92°
2026-05-04 10:10 54.06353 28.14741 7961 ft 283 kts 91°
2026-05-04 10:10 54.06331 28.18091 7954 ft 279 kts 91°
2026-05-04 10:10 54.06312 28.21369 7951 ft 276 kts 91°
2026-05-04 10:11 54.06397 28.24651 7951 ft 276 kts 84°
2026-05-04 10:11 54.06609 28.27919 8015 ft 283 kts 83°
2026-05-04 10:11 54.06833 28.31315 8717 ft 295 kts 83°
2026-05-04 10:11 54.07054 28.34841 9777 ft 301 kts 83°
2026-05-04 10:12 54.07308 28.38378 10591 ft 307 kts 76°
2026-05-04 10:12 54.08186 28.41824 10996 ft 329 kts 55°
2026-05-04 10:12 54.09525 28.45267 11217 ft 363 kts 55°
2026-05-04 10:12 54.10938 28.49021 11785 ft 381 kts 55°
2026-05-04 10:13 54.12672 28.52460 12542 ft 386 kts 36°
2026-05-04 10:13 54.14977 28.54661 13532 ft 383 kts 21°
2026-05-04 10:13 54.17460 28.56509 14418 ft 391 kts 21°
2026-05-04 10:13 54.19968 28.58388 15404 ft 396 kts 21°
2026-05-04 10:14 54.22507 28.60308 16415 ft 400 kts 21°
2026-05-04 10:14 54.25085 28.62275 17383 ft 406 kts 21°
2026-05-04 10:16 54.44000 28.76991 23080 ft 446 kts 22°
2026-05-04 10:16 54.46795 28.79378 23676 ft 452 kts 31°
2026-05-04 10:16 54.49174 28.83012 24192 ft 464 kts 50°
2026-05-04 10:16 54.50818 28.87737 24863 ft 465 kts 63°
2026-05-04 10:17 54.52204 28.92828 25499 ft 470 kts 64°
2026-05-04 10:17 54.53594 28.97972 26131 ft 474 kts 64°
2026-05-04 10:19 54.63775 29.34632 30098 ft 496 kts 63°
2026-05-04 10:19 54.65278 29.40047 30521 ft 498 kts 63°
2026-05-04 10:19 54.66789 29.45343 31053 ft 496 kts 60°
2026-05-04 10:19 54.68545 29.50475 31639 ft 492 kts 55°
2026-05-04 10:20 54.70578 29.55269 32201 ft 489 kts 50°
2026-05-04 10:20 54.72657 29.59850 32748 ft 488 kts 50°
2026-05-04 10:20 54.74764 29.64455 33285 ft 487 kts 50°
2026-05-04 10:20 54.76867 29.69067 33805 ft 485 kts 50°
2026-05-04 10:21 54.78953 29.73677 34262 ft 484 kts 50°
2026-05-04 10:21 54.81001 29.78239 34659 ft 484 kts 50°
2026-05-04 10:21 54.83064 29.82863 35046 ft 484 kts 50°
2026-05-04 10:21 54.85117 29.87484 35449 ft 483 kts 50°
2026-05-04 10:22 54.89198 29.96705 36226 ft 482 kts 51°
2026-05-04 10:22 54.91239 30.01331 36563 ft 481 kts 51°
2026-05-04 10:22 54.93283 30.05970 36940 ft 481 kts 51°
2026-05-04 10:23 54.95322 30.10605 37082 ft 485 kts 51°
2026-05-04 10:25 55.11496 30.47679 37113 ft 478 kts 51°
2026-05-04 10:25 55.15527 30.57006 37117 ft 478 kts 51°
2026-05-04 10:26 55.19381 30.65959 37126 ft 479 kts 51°
2026-05-04 10:26 55.23367 30.75248 37122 ft 480 kts 51°
2026-05-04 10:27 55.27369 30.84703 37114 ft 482 kts 53°
2026-05-04 10:27 55.30675 30.94940 37122 ft 484 kts 61°
2026-05-04 10:28 55.33668 31.05582 37118 ft 485 kts 62°
2026-05-04 10:28 55.36643 31.16183 37113 ft 485 kts 62°
2026-05-04 10:29 55.39657 31.26834 37113 ft 485 kts 62°
2026-05-04 10:29 55.42655 31.37418 37112 ft 485 kts 62°
2026-05-04 10:30 55.45653 31.48042 37115 ft 484 kts 62°
2026-05-04 10:30 55.48632 31.58652 37113 ft 484 kts 62°
2026-05-04 10:31 55.51623 31.69359 37113 ft 484 kts 62°
2026-05-04 10:32 55.61932 32.06656 37110 ft 484 kts 62°
2026-05-04 10:33 55.64873 32.17405 37103 ft 484 kts 62°
2026-05-04 10:33 55.67794 32.28134 37103 ft 484 kts 62°
2026-05-04 10:34 55.70704 32.38872 37103 ft 484 kts 62°
2026-05-04 10:34 55.73609 32.49643 37109 ft 484 kts 62°
2026-05-04 10:35 55.76500 32.60413 37113 ft 485 kts 62°
2026-05-04 10:35 55.78915 32.69451 37110 ft 485 kts 63°
2026-05-04 10:36 55.81814 32.80345 37432 ft 487 kts 63°
2026-05-04 10:36 55.83258 32.85789 37832 ft 485 kts 63°
2026-05-04 10:36 55.84698 32.91233 38229 ft 483 kts 63°
2026-05-04 10:37 55.86161 32.96536 38540 ft 483 kts 60°
2026-05-04 10:37 55.87747 33.01844 38566 ft 486 kts 59°
2026-05-04 10:37 55.91029 33.12425 38599 ft 485 kts 59°
2026-05-04 10:39 56.02177 33.48986 38595 ft 479 kts 59°
2026-05-04 10:40 56.05328 33.59485 38575 ft 479 kts 59°
2026-05-04 10:40 56.08467 33.69985 38583 ft 480 kts 60°
2026-05-04 10:41 56.11627 33.80600 38577 ft 481 kts 60°
2026-05-04 10:41 56.14765 33.91195 38601 ft 482 kts 60°
2026-05-04 10:42 56.17907 34.01850 38584 ft 482 kts 60°
2026-05-04 10:42 56.21027 34.12477 38582 ft 482 kts 60°
2026-05-04 10:43 56.24138 34.23122 38583 ft 482 kts 60°
2026-05-04 10:45 56.36520 34.65962 38581 ft 482 kts 60°
2026-05-04 10:45 56.39583 34.76669 38582 ft 481 kts 61°
2026-05-04 10:46 56.42498 34.86908 38582 ft 481 kts 61°
2026-05-04 10:46 56.45542 34.97647 38586 ft 481 kts 61°
2026-05-04 10:47 56.48595 35.08479 38571 ft 481 kts 61°
2026-05-04 10:47 56.51611 35.19233 38580 ft 481 kts 61°
2026-05-04 10:49 56.63598 35.62668 38574 ft 481 kts 62°
2026-05-04 10:50 56.66596 35.73519 38571 ft 481 kts 62°
2026-05-04 10:52 56.78510 36.17603 38576 ft 489 kts 61°
2026-05-04 10:52 56.81513 36.28743 38571 ft 490 kts 61°
2026-05-04 10:54 56.93374 36.73532 38562 ft 489 kts 62°
2026-05-04 10:56 57.05004 37.18445 38561 ft 488 kts 62°
2026-05-04 10:57 57.07905 37.29802 38556 ft 488 kts 62°
2026-05-04 10:57 57.10776 37.41101 38559 ft 488 kts 62°
2026-05-04 10:58 57.13639 37.52422 38556 ft 489 kts 62°
2026-05-04 10:58 57.16498 37.63812 38555 ft 489 kts 63°
2026-05-04 10:59 57.19001 37.75453 38557 ft 491 kts 67°
2026-05-04 10:59 57.21381 37.87313 38554 ft 491 kts 67°
2026-05-04 11:00 57.23753 37.99070 38553 ft 492 kts 67°
2026-05-04 11:02 57.33214 38.46079 38555 ft 493 kts 67°
2026-05-04 11:05 57.52932 39.32328 38558 ft 482 kts 39°
2026-05-04 11:06 57.58010 39.40557 38562 ft 481 kts 37°
2026-05-04 11:06 57.62972 39.48475 38557 ft 482 kts 37°
2026-05-04 11:10 57.98081 40.07016 38559 ft 483 kts 38°
2026-05-04 11:12 58.18000 40.41159 38556 ft 484 kts 38°
2026-05-04 11:12 58.23026 40.49758 38556 ft 484 kts 38°
2026-05-04 11:13 58.28019 40.58301 38555 ft 485 kts 38°
2026-05-04 11:13 58.33015 40.66896 38557 ft 485 kts 38°
2026-05-04 11:14 58.38026 40.75560 38543 ft 486 kts 38°
2026-05-04 11:16 58.57981 41.10420 38538 ft 486 kts 39°
2026-05-04 11:16 58.62946 41.19182 38537 ft 487 kts 39°
2026-05-04 11:17 58.67109 41.26554 38534 ft 487 kts 39°
2026-05-04 11:19 58.87850 41.59646 38543 ft 483 kts 32°
2026-05-04 11:19 58.93302 41.67349 38540 ft 484 kts 32°
2026-05-04 11:20 58.98741 41.75140 38536 ft 484 kts 33°
2026-05-04 11:20 59.04130 41.82915 38539 ft 485 kts 33°
2026-05-04 11:22 59.25728 42.14359 38541 ft 485 kts 33°
2026-05-04 11:23 59.31105 42.22266 38545 ft 485 kts 33°
2026-05-04 11:24 59.45994 42.49362 38544 ft 492 kts 45°
2026-05-04 11:25 59.48262 42.54411 38541 ft 492 kts 45°
2026-05-04 11:25 59.52760 42.64345 38541 ft 493 kts 45°
2026-05-04 11:27 59.73349 43.09851 38530 ft 495 kts 45°
2026-05-04 11:28 59.77921 43.20074 38533 ft 495 kts 45°
2026-05-04 11:28 59.82491 43.30323 38535 ft 495 kts 45°
2026-05-04 11:29 59.87054 43.40604 38536 ft 496 kts 45°
2026-05-04 11:29 59.91612 43.50921 38526 ft 496 kts 45°
2026-05-04 11:33 60.23219 44.23562 38527 ft 498 kts 46°
2026-05-04 11:33 60.27648 44.33923 38528 ft 499 kts 46°
2026-05-04 11:34 60.31962 44.44063 38530 ft 499 kts 46°
2026-05-04 11:34 60.36336 44.54390 38529 ft 500 kts 46°
2026-05-04 11:35 60.40509 44.64284 38522 ft 500 kts 46°
2026-05-04 11:35 60.44943 44.74846 38529 ft 501 kts 46°
2026-05-04 11:36 60.49161 44.84937 38520 ft 501 kts 46°
2026-05-04 11:36 60.53489 44.95341 38526 ft 501 kts 46°
2026-05-04 11:37 60.58024 45.06293 38524 ft 502 kts 47°
2026-05-04 11:37 60.62514 45.17181 38511 ft 502 kts 47°
2026-05-04 11:38 60.66972 45.28095 38517 ft 502 kts 47°
2026-05-04 11:38 60.71431 45.39082 38516 ft 502 kts 47°
2026-05-04 11:39 60.75891 45.50077 38516 ft 502 kts 47°
2026-05-04 11:41 60.91467 45.88480 38519 ft 503 kts 47°
2026-05-04 11:41 60.95893 45.99528 38513 ft 503 kts 47°
2026-05-04 11:42 61.00336 46.10666 38517 ft 504 kts 47°
2026-05-04 11:42 61.04775 46.21854 38513 ft 504 kts 48°
2026-05-04 11:43 61.09174 46.33167 38516 ft 504 kts 48°
2026-05-04 11:43 61.13543 46.44515 38519 ft 505 kts 48°
2026-05-04 11:44 61.17918 46.55910 38524 ft 505 kts 48°
2026-05-04 11:44 61.22264 46.67263 38520 ft 505 kts 49°
2026-05-04 11:45 61.26150 46.77476 38521 ft 505 kts 49°
2026-05-04 11:45 61.30546 46.89114 38515 ft 506 kts 49°
2026-05-04 11:46 61.34859 47.00592 38519 ft 506 kts 49°
2026-05-04 11:46 61.39189 47.12168 38512 ft 506 kts 49°
2026-05-04 11:47 61.43518 47.23789 38520 ft 507 kts 49°
2026-05-04 11:47 61.47840 47.35430 38518 ft 507 kts 49°
2026-05-04 11:48 61.52163 47.47117 38509 ft 507 kts 49°
2026-05-04 11:48 61.56461 47.58847 38503 ft 507 kts 50°
2026-05-04 11:49 61.60284 47.69382 38507 ft 508 kts 50°
2026-05-04 11:50 61.63470 47.78202 38519 ft 508 kts 50°
2026-05-04 11:50 61.67739 47.90063 38515 ft 508 kts 50°
2026-05-04 11:51 61.71767 48.01303 38512 ft 508 kts 50°
2026-05-04 11:51 61.76073 48.13382 38517 ft 508 kts 50°
2026-05-04 11:52 61.80325 48.25371 38510 ft 509 kts 50°
2026-05-04 11:52 61.84529 48.37290 38516 ft 509 kts 50°
2026-05-04 11:53 61.88747 48.49307 38515 ft 509 kts 50°
2026-05-04 11:53 61.92961 48.61378 38518 ft 509 kts 51°
2026-05-04 11:55 62.07071 49.02267 38526 ft 510 kts 51°
2026-05-04 11:56 62.11244 49.14493 38518 ft 510 kts 51°
2026-05-04 11:56 62.15455 49.26843 38519 ft 510 kts 51°
2026-05-04 11:57 62.19605 49.39045 38517 ft 510 kts 51°
2026-05-04 11:57 62.23800 49.51455 38516 ft 511 kts 51°
2026-05-04 11:58 62.27962 49.63841 38519 ft 511 kts 51°
2026-05-04 11:58 62.32114 49.76267 38515 ft 511 kts 51°
2026-05-04 11:59 62.36259 49.88740 38519 ft 512 kts 51°
2026-05-04 11:59 62.40417 50.01320 38518 ft 512 kts 52°
2026-05-04 12:00 62.44543 50.13871 38520 ft 512 kts 52°
2026-05-04 12:00 62.48659 50.26461 38519 ft 513 kts 52°
2026-05-04 12:01 62.52771 50.39106 38515 ft 513 kts 52°
2026-05-04 12:02 62.67190 50.83460 38515 ft 514 kts 52°
2026-05-04 12:03 62.71302 50.96241 38515 ft 515 kts 52°
2026-05-04 12:03 62.75375 51.08971 38511 ft 515 kts 52°
2026-05-04 12:04 62.79461 51.21869 38506 ft 516 kts 52°
2026-05-04 12:04 62.83527 51.34789 38507 ft 516 kts 52°
2026-05-04 12:05 62.87589 51.47768 38504 ft 516 kts 53°
2026-05-04 12:05 62.91639 51.60774 38498 ft 516 kts 53°
2026-05-04 12:06 62.95679 51.73819 38496 ft 516 kts 53°
2026-05-04 12:06 62.99705 51.86897 38481 ft 517 kts 53°
2026-05-04 12:07 63.03726 52.00036 38501 ft 517 kts 53°
2026-05-04 12:07 63.07735 52.13213 38502 ft 517 kts 53°
2026-05-04 12:08 63.11732 52.26423 38483 ft 517 kts 53°
2026-05-04 12:08 63.11986 52.27266 38484 ft 517 kts 53°
2026-05-04 12:09 63.14566 52.35837 38483 ft 518 kts 53°
2026-05-04 12:09 63.15183 52.37890 38485 ft 518 kts 53°
2026-05-04 12:10 63.18085 52.47574 38481 ft 518 kts 53°
2026-05-04 12:10 63.18807 52.50000 38482 ft 518 kts 54°
2026-05-04 12:11 63.21818 52.60183 38479 ft 518 kts 54°
2026-05-04 12:11 63.22361 52.62029 38477 ft 518 kts 54°
2026-05-04 12:14 63.30224 52.88927 38468 ft 519 kts 54°
2026-05-04 12:15 63.34144 53.02440 38467 ft 519 kts 54°
2026-05-04 12:15 63.37983 53.15749 38468 ft 519 kts 54°
2026-05-04 12:17 63.40559 53.24725 38467 ft 520 kts 54°
2026-05-04 12:17 63.44440 53.38316 38458 ft 520 kts 55°
2026-05-04 12:18 63.48342 53.52068 38461 ft 520 kts 55°
2026-05-04 12:18 63.52201 53.65740 38377 ft 516 kts 55°
2026-05-04 12:19 63.54136 53.72477 38009 ft 509 kts 52°
2026-05-04 12:19 63.56276 53.78770 37354 ft 505 kts 46°
2026-05-04 12:19 63.58626 53.84647 36479 ft 507 kts 41°
2026-05-04 12:19 63.61213 53.90024 35599 ft 508 kts 37°
2026-05-04 12:20 63.63415 53.94360 34942 ft 510 kts 37°
2026-05-04 12:20 63.64426 53.96331 34644 ft 510 kts 36°
2026-05-04 12:20 63.66268 53.99911 34202 ft 509 kts 36°
2026-05-04 12:20 63.67712 54.02724 33907 ft 507 kts 36°
2026-05-04 12:21 63.69469 54.06166 33582 ft 503 kts 36°
2026-05-04 12:21 63.69991 54.07191 33477 ft 502 kts 37°
2026-05-04 12:21 63.70638 54.08469 33356 ft 500 kts 37°
2026-05-04 12:21 63.73241 54.13634 32855 ft 495 kts 37°
2026-05-04 12:22 63.75803 54.18760 32318 ft 490 kts 37°
2026-05-04 12:22 63.78344 54.23872 31762 ft 487 kts 37°
2026-05-04 12:22 63.80837 54.28906 31219 ft 484 kts 36°
2026-05-04 12:22 63.83360 54.34017 30676 ft 481 kts 36°
2026-05-04 12:23 63.85848 54.39065 30159 ft 478 kts 36°
2026-05-04 12:23 63.87491 54.42406 29821 ft 476 kts 36°
2026-05-04 12:23 63.89938 54.47388 29226 ft 472 kts 36°
2026-05-04 12:23 63.92382 54.52376 28687 ft 469 kts 36°
2026-05-04 12:24 63.94794 54.57310 28158 ft 465 kts 36°
2026-05-04 12:24 63.97185 54.62214 27641 ft 461 kts 36°
2026-05-04 12:24 63.99559 54.67093 27122 ft 458 kts 36°
2026-05-04 12:24 64.01914 54.71946 26613 ft 455 kts 36°
2026-05-04 12:25 64.05011 54.78342 25960 ft 451 kts 36°
2026-05-04 12:25 64.06570 54.81568 25640 ft 449 kts 36°
2026-05-04 12:25 64.08879 54.86359 25157 ft 446 kts 36°
2026-05-04 12:25 64.11171 54.91126 24708 ft 443 kts 36°
2026-05-04 12:26 64.13420 54.95817 24267 ft 440 kts 36°
2026-05-04 12:26 64.15672 55.00527 23819 ft 438 kts 36°
2026-05-04 12:26 64.17912 55.05221 23376 ft 435 kts 36°
2026-05-04 12:26 64.20144 55.09909 22879 ft 433 kts 36°
2026-05-04 12:27 64.22354 55.14558 22379 ft 430 kts 37°
2026-05-04 12:27 64.24549 55.19187 21901 ft 427 kts 37°
2026-05-04 12:27 64.26728 55.23793 21437 ft 424 kts 37°
2026-05-04 12:27 64.28899 55.28392 20981 ft 422 kts 37°
2026-05-04 12:28 64.31038 55.32935 20525 ft 419 kts 37°
2026-05-04 12:28 64.33184 55.37500 20088 ft 417 kts 37°
2026-05-04 12:28 64.35300 55.42013 19662 ft 414 kts 37°
2026-05-04 12:28 64.37419 55.46541 19246 ft 412 kts 37°
2026-05-04 12:29 64.39515 55.51031 18851 ft 409 kts 37°
2026-05-04 12:29 64.41594 55.55493 18450 ft 407 kts 37°
2026-05-04 12:29 64.43659 55.59939 18054 ft 405 kts 38°
2026-05-04 12:29 64.45720 55.64382 17621 ft 403 kts 37°
2026-05-04 12:30 64.47712 55.68939 17205 ft 403 kts 44°
2026-05-04 12:30 64.49421 55.74129 16652 ft 407 kts 53°
2026-05-04 12:30 64.50854 55.79835 16002 ft 412 kts 61°
2026-05-04 12:30 64.52037 55.85912 15380 ft 414 kts 64°
2026-05-04 12:31 64.53184 55.92040 14754 ft 415 kts 64°
2026-05-04 12:31 64.54335 55.98218 14140 ft 415 kts 64°
2026-05-04 12:31 64.55486 56.04386 13531 ft 415 kts 64°
2026-05-04 12:31 64.56638 56.10546 12868 ft 415 kts 64°
2026-05-04 12:32 64.57788 56.16691 12299 ft 411 kts 64°
2026-05-04 12:32 64.60044 56.28755 11315 ft 401 kts 64°
2026-05-04 12:32 64.61154 56.34706 10823 ft 396 kts 64°
2026-05-04 12:33 64.62247 56.40582 10310 ft 392 kts 64°
2026-05-04 12:33 64.63309 56.46306 9836 ft 389 kts 64°
2026-05-04 12:33 64.64331 56.51832 9296 ft 386 kts 64°
2026-05-04 12:33 64.65389 56.57568 8719 ft 384 kts 64°
2026-05-04 12:34 64.66442 56.63290 8106 ft 381 kts 64°
2026-05-04 12:34 64.67477 56.68938 7652 ft 376 kts 64°
2026-05-04 12:34 64.68493 56.74496 7185 ft 370 kts 64°
2026-05-04 12:34 64.69499 56.80014 6718 ft 365 kts 64°
2026-05-04 12:35 64.70487 56.85444 6269 ft 361 kts 64°
2026-05-04 12:35 64.71460 56.90804 5801 ft 356 kts 64°
2026-05-04 12:35 64.72435 56.96185 5318 ft 352 kts 63°
2026-05-04 12:35 64.73371 57.01376 4844 ft 349 kts 63°
2026-05-04 12:36 64.74310 57.06597 4383 ft 345 kts 63°
2026-05-04 12:36 64.75348 57.11506 3877 ft 328 kts 50°
2026-05-04 12:36 64.76992 57.15021 3410 ft 315 kts 25°
2026-05-04 12:36 64.78979 57.16873 3055 ft 303 kts
2026-05-04 12:37 64.81029 57.17466 2686 ft 292 kts 355°
2026-05-04 12:37 64.83035 57.17233 2324 ft 284 kts 352°
2026-05-04 12:37 64.84944 57.16927 1950 ft 263 kts 352°
2026-05-04 12:37 64.86669 57.16650 1880 ft 232 kts 351°
2026-05-04 12:38 64.88178 57.16418 1880 ft 204 kts 351°
2026-05-04 12:38 64.89499 57.16218 1865 ft 179 kts 350°
2026-05-04 12:38 64.90725 57.16028 1908 ft 173 kts 349°
2026-05-04 12:38 64.91897 57.15850 1964 ft 164 kts 349°
2026-05-04 12:39 64.92985 57.15689 1966 ft 149 kts 349°
2026-05-04 12:39 64.94013 57.15534 1985 ft 150 kts 348°
2026-05-04 12:39 64.95056 57.15376 1984 ft 150 kts 348°
2026-05-04 12:39 64.96082 57.15226 1972 ft 146 kts 349°
2026-05-04 12:40 64.97073 57.15085 1975 ft 137 kts 348°
2026-05-04 12:40 64.98012 57.14952 1966 ft 132 kts 348°
2026-05-04 12:40 64.98930 57.14818 1965 ft 132 kts 348°
2026-05-04 12:40 64.99840 57.14686 1966 ft 130 kts 348°
2026-05-04 12:41 65.00731 57.14558 1963 ft 129 kts 348°
2026-05-04 12:41 65.01619 57.14431 1961 ft 128 kts 348°
2026-05-04 12:41 65.02503 57.14307 1967 ft 127 kts 348°
2026-05-04 12:41 65.03396 57.14178 1957 ft 131 kts 348°
2026-05-04 12:42 65.04319 57.14044 1814 ft 135 kts 349°
2026-05-04 12:42 65.05249 57.13914 1652 ft 133 kts 349°
2026-05-04 12:42 65.06162 57.13788 1499 ft 130 kts 349°
2026-05-04 12:42 65.07062 57.13656 1439 ft 130 kts 349°
2026-05-04 12:43 65.07979 57.13544 1328 ft 136 kts 347°
2026-05-04 12:43 65.08917 57.13217 979 ft 137 kts 348°
2026-05-04 12:43 65.09880 57.13213 525 ft 134 kts 350°
2026-05-04 12:43 65.10771 57.13123 315 ft 130 kts 353°
2026-05-04 12:44 65.11689 57.13085 228 ft 137 kts 356°
2026-05-04 12:44 65.12596 57.13089 206 ft 100 kts
2026-05-04 12:44 65.12842 57.13165 197 ft 7 kts
2026-05-04 12:44 65.12863 57.13104 195 ft 1 kts 263°
2026-05-04 12:45 65.12855 57.13088 196 ft 2 kts 215°
2026-05-04 12:45 65.12844 57.13090 200 ft 2 kts 170°
2026-05-04 12:45 65.12827 57.13096 201 ft 7 kts 170°
2026-05-04 12:45 65.12693 57.13130 201 ft 33 kts 181°
2026-05-04 12:46 65.12390 57.13109 203 ft 48 kts 181°
2026-05-04 12:46 65.12054 57.13095 192 ft 45 kts 181°
2026-05-04 12:46 65.11787 57.13078 200 ft 19 kts 180°
2026-05-04 12:46 65.11760 57.13125 205 ft 7 kts 125°
2026-05-04 12:47 65.11751 57.13344 198 ft 20 kts 88°
2026-05-04 12:47 65.11756 57.13763 201 ft 31 kts 89°
2026-05-04 12:47 65.11703 57.14120 203 ft 12 kts 123°
2026-05-04 12:47 65.11702 57.14127 203 ft 0 kts 121°
2026-05-04 12:55 65.11702 57.14126 185 ft 0 kts 121°